Hovedside
METAR-TAF:

METAR-TAF

Lufthavner :

Torsby, Sverige

breddegrad: 60-09-17N, lengdegrad: 12-59-40E, høyde over havet: 120 m

Gjeldene værobservasjon

Denne rapporten ble laget for 18 minutter siden, klokken 07:20 UTC
Vind 6 kt fra Øst-sørøst
Temperatur 4°C
Luftfuktighet 75%
Trykk 1025 hPa
Sikt 10 km eller mer
Brutte skyer i en høyde av 4000 ft

METAR: ESST 240720Z 11006KT 9999 BKN040 04/00 Q1025

Tid: 09:38 (07:38 UTC)


TAF: fraværende

Værobservasjoner og værvarsel for over 4000 flyplasser (METAR- og TAF-rapporter).

Tilgjengelige stasjoner er representert av de røde og gule prikkene på kartet.

Hold musepekeren over prikken for å se navnet på stasjonen.

Klikk så for å se værobservasjoner og -varsler.

For å forandre kartet kan du klikke på den grønne knappen med svart kryss for å zoome inn, på den grønne knappen med strek for å zoome ut, eller på de grønne pilene for å se tilstøtende kart.


METAR-TAF: